ZKJEE NZWR-NZAA

Flight info

Callsign ZKJEE
Flight time 0h 37m
Altitude 10000
Route SF Q520 APABO
Aircraft DHC6/L-SDFGR/G

Departure

Time 2026-04-21 23:54
Airport Whangarei Airport (NZWR)

Arrival

Time 2026-04-22 00:32
Airport Auckland International Airport (NZAA)
Time Latitude Longitude Altitude Speed Heading
2026-04-21 23:44 -35.76983 174.35814 142 ft 0 kts 81°
2026-04-21 23:54 -35.76974 174.35884 142 ft 39 kts 81°
2026-04-21 23:54 -35.76889 174.36564 143 ft 114 kts 81°
2026-04-21 23:54 -35.76764 174.37577 451 ft 119 kts 83°
2026-04-21 23:54 -35.76994 174.38529 740 ft 121 kts 139°
2026-04-21 23:55 -35.77756 174.38736 1117 ft 116 kts 200°
2026-04-21 23:55 -35.78496 174.38308 1478 ft 124 kts 213°
2026-04-21 23:55 -35.79246 174.37818 1899 ft 124 kts 203°
2026-04-21 23:55 -35.80049 174.37387 2262 ft 128 kts 204°
2026-04-21 23:56 -35.80904 174.37007 2601 ft 135 kts 202°
2026-04-21 23:56 -35.81833 174.36685 2961 ft 141 kts 197°
2026-04-21 23:56 -35.82806 174.36441 3320 ft 146 kts 191°
2026-04-21 23:56 -35.83835 174.36256 3694 ft 147 kts 184°
2026-04-21 23:57 -35.84842 174.36125 4046 ft 147 kts 183°
2026-04-21 23:57 -35.85870 174.36012 4401 ft 147 kts 183°
2026-04-21 23:57 -35.86872 174.35914 4734 ft 149 kts 183°
2026-04-21 23:57 -35.87905 174.35803 5097 ft 148 kts 185°
2026-04-21 23:58 -35.88932 174.35864 5433 ft 149 kts 163°
2026-04-21 23:58 -35.89853 174.36425 5795 ft 148 kts 150°
2026-04-21 23:58 -35.90728 174.37074 6141 ft 148 kts 150°
2026-04-21 23:58 -35.91622 174.37717 6493 ft 149 kts 152°
2026-04-21 23:59 -35.92521 174.38328 6841 ft 149 kts 153°
2026-04-21 23:59 -35.93438 174.38930 7191 ft 149 kts 154°
2026-04-21 23:59 -35.94362 174.39533 7544 ft 150 kts 154°
2026-04-21 23:59 -35.95285 174.40129 7893 ft 151 kts 154°
2026-04-22 00:00 -35.96205 174.40738 8242 ft 151 kts 154°
2026-04-22 00:00 -35.97136 174.41354 8594 ft 152 kts 154°
2026-04-22 00:00 -35.98081 174.41964 8945 ft 153 kts 155°
2026-04-22 00:00 -35.99021 174.42569 9295 ft 153 kts 154°
2026-04-22 00:01 -35.99964 174.43195 9644 ft 154 kts 154°
2026-04-22 00:01 -36.00926 174.43829 9895 ft 162 kts 154°
2026-04-22 00:01 -36.01930 174.44493 9989 ft 170 kts 154°
2026-04-22 00:01 -36.02995 174.45196 10008 ft 178 kts 154°
2026-04-22 00:02 -36.04107 174.45925 10011 ft 185 kts 154°
2026-04-22 00:02 -36.05261 174.46674 10005 ft 189 kts 154°
2026-04-22 00:02 -36.06448 174.47441 10001 ft 191 kts 154°
2026-04-22 00:02 -36.07632 174.48210 10000 ft 192 kts 153°
2026-04-22 00:03 -36.08808 174.48992 10001 ft 193 kts 153°
2026-04-22 00:03 -36.09994 174.49764 10000 ft 193 kts 154°
2026-04-22 00:03 -36.11184 174.50549 9999 ft 193 kts 153°
2026-04-22 00:03 -36.12368 174.51324 9999 ft 193 kts 153°
2026-04-22 00:04 -36.13557 174.52108 9999 ft 193 kts 154°
2026-04-22 00:04 -36.14740 174.52881 9999 ft 194 kts 153°
2026-04-22 00:04 -36.15929 174.53666 9998 ft 193 kts 154°
2026-04-22 00:04 -36.17112 174.54443 9997 ft 193 kts 153°
2026-04-22 00:05 -36.18302 174.55221 10008 ft 193 kts 154°
2026-04-22 00:05 -36.19487 174.56007 10015 ft 193 kts 153°
2026-04-22 00:05 -36.20668 174.56794 10017 ft 193 kts 153°
2026-04-22 00:05 -36.21861 174.57577 10017 ft 194 kts 153°
2026-04-22 00:06 -36.23048 174.58367 10017 ft 194 kts 153°
2026-04-22 00:06 -36.24240 174.59163 10017 ft 194 kts 153°
2026-04-22 00:06 -36.25433 174.59942 10017 ft 195 kts 153°
2026-04-22 00:06 -36.26631 174.60732 10017 ft 195 kts 153°
2026-04-22 00:07 -36.27846 174.61531 10017 ft 195 kts 153°
2026-04-22 00:07 -36.29025 174.62308 10017 ft 196 kts 153°
2026-04-22 00:07 -36.30238 174.63101 10018 ft 196 kts 153°
2026-04-22 00:07 -36.31450 174.63898 10017 ft 196 kts 153°
2026-04-22 00:08 -36.32630 174.64680 10006 ft 197 kts 153°
2026-04-22 00:08 -36.33865 174.65485 10001 ft 197 kts 153°
2026-04-22 00:08 -36.35072 174.66284 10000 ft 196 kts 153°
2026-04-22 00:08 -36.36271 174.67081 10000 ft 196 kts 153°
2026-04-22 00:09 -36.37474 174.67881 10000 ft 196 kts 153°
2026-04-22 00:09 -36.38659 174.68666 10000 ft 196 kts 153°
2026-04-22 00:09 -36.39870 174.69473 10000 ft 196 kts 152°
2026-04-22 00:09 -36.41078 174.70275 10000 ft 196 kts 153°
2026-04-22 00:10 -36.42272 174.71065 10000 ft 196 kts 152°
2026-04-22 00:10 -36.43474 174.71867 10000 ft 196 kts 153°
2026-04-22 00:10 -36.44683 174.72665 10000 ft 196 kts 152°
2026-04-22 00:10 -36.45881 174.73462 10000 ft 196 kts 153°
2026-04-22 00:11 -36.47080 174.74254 10000 ft 196 kts 152°
2026-04-22 00:11 -36.48274 174.75048 10000 ft 196 kts 153°
2026-04-22 00:11 -36.49490 174.75852 10000 ft 196 kts 152°
2026-04-22 00:11 -36.50674 174.76640 10000 ft 195 kts 153°
2026-04-22 00:12 -36.51888 174.77442 10000 ft 196 kts 152°
2026-04-22 00:12 -36.53076 174.78234 10000 ft 196 kts 153°
2026-04-22 00:12 -36.54270 174.79021 10000 ft 196 kts 152°
2026-04-22 00:12 -36.55471 174.79821 10000 ft 196 kts 153°
2026-04-22 00:13 -36.56671 174.80617 10000 ft 196 kts 152°
2026-04-22 00:13 -36.57875 174.81433 10000 ft 196 kts 152°
2026-04-22 00:13 -36.59063 174.82243 10000 ft 196 kts 152°
2026-04-22 00:13 -36.60249 174.83051 10000 ft 196 kts 152°
2026-04-22 00:14 -36.61448 174.83868 10000 ft 196 kts 152°
2026-04-22 00:14 -36.62657 174.84672 10000 ft 195 kts 152°
2026-04-22 00:14 -36.63861 174.85484 10000 ft 195 kts 152°
2026-04-22 00:14 -36.65054 174.86277 10000 ft 195 kts 153°
2026-04-22 00:15 -36.66261 174.87069 10000 ft 195 kts 153°
2026-04-22 00:15 -36.67463 174.87877 10000 ft 195 kts 152°
2026-04-22 00:15 -36.68650 174.88666 10000 ft 195 kts 153°
2026-04-22 00:15 -36.69846 174.89458 10000 ft 195 kts 152°
2026-04-22 00:16 -36.71056 174.90273 10000 ft 195 kts 152°
2026-04-22 00:16 -36.72264 174.91072 10000 ft 195 kts 152°
2026-04-22 00:16 -36.73477 174.91885 10000 ft 195 kts 152°
2026-04-22 00:16 -36.74683 174.92686 10000 ft 195 kts 152°
2026-04-22 00:17 -36.75869 174.93485 10000 ft 194 kts 152°
2026-04-22 00:17 -36.77068 174.94285 10000 ft 194 kts 153°
2026-04-22 00:17 -36.78263 174.95074 10000 ft 194 kts 152°
2026-04-22 00:17 -36.79449 174.95868 10000 ft 194 kts 152°
2026-04-22 00:18 -36.80648 174.96662 10000 ft 194 kts 152°
2026-04-22 00:18 -36.81849 174.97462 10000 ft 194 kts 153°
2026-04-22 00:18 -36.83068 174.98270 9907 ft 196 kts 152°
2026-04-22 00:18 -36.84193 174.99024 9653 ft 180 kts 153°
2026-04-22 00:19 -36.85281 174.99741 9396 ft 171 kts 153°
2026-04-22 00:19 -36.86299 175.00425 9143 ft 165 kts 153°
2026-04-22 00:19 -36.87344 175.00963 8890 ft 160 kts 162°
2026-04-22 00:19 -36.88397 175.01395 8636 ft 156 kts 163°
2026-04-22 00:20 -36.89421 175.01809 8385 ft 154 kts 163°
2026-04-22 00:20 -36.90433 175.02236 8134 ft 153 kts 163°
2026-04-22 00:20 -36.91434 175.02663 7883 ft 151 kts 163°
2026-04-22 00:20 -36.92424 175.03081 7634 ft 150 kts 163°
2026-04-22 00:21 -36.93424 175.03480 7375 ft 148 kts 172°
2026-04-22 00:21 -36.94352 175.03178 7117 ft 141 kts 220°
2026-04-22 00:21 -36.94853 175.02145 6884 ft 137 kts 250°
2026-04-22 00:21 -36.95133 175.01025 6638 ft 136 kts 254°
2026-04-22 00:22 -36.95382 174.99890 6387 ft 135 kts 254°
2026-04-22 00:22 -36.95632 174.98768 6137 ft 134 kts 253°
2026-04-22 00:22 -36.95897 174.97656 5885 ft 132 kts 252°
2026-04-22 00:22 -36.96176 174.96568 5635 ft 131 kts 250°
2026-04-22 00:23 -36.96466 174.95514 5386 ft 129 kts 249°
2026-04-22 00:23 -36.96765 174.94467 5134 ft 127 kts 248°
2026-04-22 00:23 -36.97065 174.93437 4883 ft 126 kts 247°
2026-04-22 00:23 -36.97365 174.92409 4630 ft 125 kts 247°
2026-04-22 00:24 -36.97560 174.91737 4464 ft 124 kts 247°
2026-04-22 00:24 -36.97940 174.90390 4132 ft 124 kts 247°
2026-04-22 00:24 -36.98130 174.89705 3963 ft 124 kts 247°
2026-04-22 00:24 -36.98411 174.88686 3712 ft 124 kts 246°
2026-04-22 00:25 -36.98786 174.87329 3380 ft 125 kts 246°
2026-04-22 00:25 -36.98977 174.86641 3212 ft 125 kts 246°
2026-04-22 00:25 -36.99266 174.85606 2960 ft 126 kts 245°
2026-04-22 00:25 -36.99556 174.84568 2710 ft 127 kts 245°
2026-04-22 00:26 -36.99850 174.83525 2467 ft 126 kts 250°
2026-04-22 00:26 -37.00165 174.82536 2226 ft 122 kts 248°
2026-04-22 00:26 -37.00428 174.81519 1971 ft 123 kts 251°
2026-04-22 00:26 -37.00674 174.80491 1717 ft 125 kts 247°
2026-04-22 00:27 -37.00953 174.79449 1468 ft 127 kts 243°
2026-04-22 00:27 -37.01262 174.78413 1227 ft 128 kts 245°
2026-04-22 00:27 -37.01603 174.77461 1058 ft 117 kts 221°
2026-04-22 00:27 -37.02290 174.77254 968 ft 107 kts 166°
2026-04-22 00:28 -37.02738 174.78024 747 ft 120 kts 101°
2026-04-22 00:28 -37.02758 174.79049 609 ft 116 kts 91°
2026-04-22 00:28 -37.02748 174.80015 506 ft 108 kts 90°
2026-04-22 00:28 -37.02737 174.80909 471 ft 97 kts 90°
2026-04-22 00:29 -37.02728 174.81703 463 ft 86 kts 90°
2026-04-22 00:29 -37.02719 174.82413 454 ft 76 kts 90°
2026-04-22 00:29 -37.02712 174.83032 379 ft 74 kts 89°
2026-04-22 00:29 -37.02666 174.83757 524 ft 78 kts 63°
2026-04-22 00:30 -37.02122 174.84014 785 ft 85 kts 321°
2026-04-22 00:30 -37.01664 174.83534 1054 ft 98 kts 313°
2026-04-22 00:30 -37.01099 174.83086 1127 ft 95 kts 310°
2026-04-22 00:30 -37.00600 174.82580 1104 ft 87 kts 290°
2026-04-22 00:31 -37.00351 174.81911 906 ft 89 kts 265°
2026-04-22 00:31 -37.00433 174.81143 660 ft 93 kts 243°
2026-04-22 00:31 -37.00734 174.80350 315 ft 107 kts 239°
2026-04-22 00:31 -37.00999 174.79525 198 ft 96 kts 253°
2026-04-22 00:32 -37.01171 174.78779 104 ft 84 kts 251°
2026-04-22 00:32 -37.01346 174.78151 35 ft 70 kts 251°
2026-04-22 00:32 -37.01424 174.77849 32 ft 0 kts 252°